Regional Weather Roundup
Issued by NWS Sioux Falls, SD

Home | Current Version | Previous Version | Text Only | Print | Product List | Glossary On
Versions: 1 2 3 4 5 6 7 8 9 10 11 12 13 14 15 16 17 18 19 20 21 22 23 24 25 26 27 28 29 30 31 32 33 34 35 36 37 38 39 40 41 42 43 44 45 46 47 48 49 50
000
ASUS43 KFSD 262102
RWRFSD

WEATHER ROUNDUP FOR SE SOUTH DAKOTA/SW MINNESOTA/NW IOWA
NATIONAL WEATHER SERVICE SIOUX FALLS SD
400 PM CDT SUN MAR 26 2017

NOTE: "FAIR" INDICATES FEW OR NO CLOUDS BELOW 12,000 FEET WITH NO
SIGNIFICANT WEATHER AND OR OBSTRUCTIONS TO VISIBILITY.


SDZ038>040-050-052>070-262200-
SOUTHEAST SOUTH DAKOTA

CITY           SKY/WX    TMP DP  RH WIND       PRES   REMARKS
BROOKINGS      CLOUDY    41  37  86 NW5       29.93S
CHAMBERLAIN    CLOUDY    49  41  75 E3        29.92S
HURON          CLOUDY    47  37  68 N5        29.93F
MADISON        CLOUDY    41  41 100 N3        29.92F
MITCHELL       CLOUDY    47  38  71 NE6       29.93F
SIOUX FALLS    CLOUDY    47  38  71 NE5       29.92F
WINNER         CLOUDY    50  40  68 NE5       29.92R
YANKTON        CLOUDY    46  39  76 NW3       29.92F
$$

MNZ071-072-080-081-089-090-097-098-262200-
SOUTHWEST MINNESOTA

CITY           SKY/WX    TMP DP  RH WIND       PRES   REMARKS
FAIRMONT       CLOUDY    41  38  89 N9        29.91R
JACKSON        CLOUDY    41  37  87 N5        29.91S
LUVERNE        CLOUDY    43  36  75 N6        29.92F
MARSHALL       CLOUDY    42  37  82 N9        29.93S
MONTEVIDEO     CLOUDY    46  37  71 E3        29.94F
PIPESTONE      CLOUDY    43  36  75 N5        29.91F
REDWOOD FALLS  CLOUDY    45  36  70 N5        29.91S
TRACY          CLOUDY    42  38  86 NW9       29.92S
WINDOM         PTSUNNY   43  37  81 NW8       29.91S
WORTHINGTON    CLOUDY    41  37  86 NW9       29.92S
$$

IAZ001>003-012>014-020>022-031-032-NEZ013-014-SDZ071-262200-
NORTHWEST IOWA

CITY           SKY/WX    TMP DP  RH WIND       PRES   REMARKS
CHEROKEE       CLOUDY    46  41  82 NW8       29.90F
ESTHERVILLE    CLOUDY    42  39  89 N10       29.90R
LE MARS        CLOUDY    46  39  76 NW10      29.92F
ORANGE CITY    CLOUDY    45  39  81 N8        29.91F
SHELDON        CLOUDY    45  45 100 NW9       29.90S
SIOUX CITY     CLOUDY    47  40  76 NW8       29.91F
SPENCER        CLOUDY    45  39  79 NW9       29.91S
STORM LAKE       N/A     45  41  87 N9        29.89F
$$

ABBREVIATIONS USED IN REMARKS
   TC - TEMPERATURE IN CELSIUS
  WCI - WIND CHILL INDEX
   HX - HEAT INDEX
  VSB - VISIBILITY





USA.gov is the U.S. government's official web portal to all federal, state and local government web resources and services.